This demonstration page uses our WeatherBlox Daily Observations layout. Learn more.

Left ArrowRight Arrow

53.62937, 11.41316

Hourly Observations for June 6, 2015

Temp ( °F °C ) Dew Point ( °F °C ) Humidity (%) Winds ( mph kmh ) Pressure ( in mb ) Visibility ( mi km ) Precip ( " mm )
6:20 am 06:20 Mostly Sunny 66 19 50 10 56 56 SSE 9 15 30.00 1016 7 11 N/A
6:50 am 06:50 Mostly Sunny 68 20 52 11 56 56 SSE 5 7 30.00 1016 7 11 N/A
7:20 am 07:20 Mostly Cloudy with Nearby Thunderstorms 68 20 54 12 60 60 WSW 12 19 30.03 1017 4 7 N/A
7:50 am 07:50 Mostly Sunny 64 18 59 15 83 83 VRB 6 9 30.03 1017 7 11 N/A
8:20 am 08:20 Mostly Sunny 66 19 57 14 73 73 S 7 11 30.06 1018 7 11 N/A
8:50 am 08:50 Mostly Sunny 64 18 59 15 83 83 VRB 1 2 30.03 1017 30 48 N/A
9:20 am 09:20 Mostly Sunny 68 20 61 16 78 78 SW 5 7 30.06 1018 7 11 N/A
9:50 am 09:50 Mostly Sunny 70 21 61 16 73 73 WSW 5 7 30.06 1018 7 11 N/A
10:20 am 10:20 Mostly Sunny 73 23 61 16 65 65 SW 8 13 30.06 1018 7 11 N/A
10:50 am 10:50 Mostly Sunny 73 23 63 17 69 69 SW 9 15 30.06 1018 7 11 N/A
11:20 am 11:20 Mostly Sunny 73 23 61 16 65 65 WSW 13 20 30.06 1018 7 11 N/A
11:50 am 11:50 Mostly Sunny 75 24 63 17 65 65 WSW 12 19 30.06 1018 7 11 N/A
12:20 pm 12:20 Mostly Sunny 77 25 61 16 57 57 WSW 10 17 30.06 1018 30 48 N/A
12:50 pm 12:50 Mostly Cloudy 79 26 63 17 58 58 WSW 15 24 30.09 1019 30 48 N/A
1:20 pm 13:20 Mostly Cloudy 77 25 63 17 61 61 W 14 22 30.09 1019 30 48 N/A
1:50 pm 13:50 Mostly Cloudy 77 25 63 17 61 61 W 10 17 30.09 1019 30 48 N/A
2:20 pm 14:20 Cloudy 79 26 61 16 54 54 W 16 26 30.09 1019 30 48 N/A
2:50 pm 14:50 Mostly Sunny 75 24 61 16 61 61 W 15 24 30.12 1020 7 11 N/A
3:20 pm 15:20 Cloudy 79 26 61 16 54 54 W 14 22 30.12 1020 30 48 N/A
3:50 pm 15:50 Mostly Sunny 79 26 59 15 51 51 W 14 22 30.15 1021 7 11 N/A
4:20 pm 16:20 Mostly Cloudy 75 24 59 15 57 57 NW 13 20 30.15 1021 30 48 N/A
4:50 pm 16:50 Mostly Cloudy 73 23 59 15 61 61 NW 14 22 30.18 1022 30 48 N/A
5:20 pm 17:20 Partly Cloudy 72 22 55 13 57 57 WNW 13 20 30.18 1022 30 48 N/A
5:50 pm 17:50 Mostly Sunny 70 21 52 11 53 53 WNW 14 22 30.18 1022 7 11 N/A
6:20 pm 18:20 Mostly Sunny 70 21 52 11 53 53 NW 12 19 30.21 1023 7 11 N/A
6:50 pm 18:50 Mostly Sunny 70 21 48 9 46 46 NW 14 22 30.21 1023 7 11 N/A
7:20 pm 19:20 Mostly Sunny 68 20 37 3 33 33 NW 8 13 30.21 1023 7 11 N/A
7:50 pm 19:50 Mostly Sunny 66 19 39 4 37 37 NW 9 15 30.21 1023 7 11 N/A
8:20 pm 20:20 Mostly Sunny 64 18 36 2 34 34 NW 8 13 30.21 1023 7 11 N/A
8:50 pm 20:50 Mostly Sunny 63 17 34 1 34 34 NW 6 9 30.24 1024 7 11 N/A
9:20 pm 21:20 Mostly Sunny 61 16 36 2 39 39 NW 6 9 30.24 1024 7 11 N/A
9:50 pm 21:50 Mostly Clear 59 15 36 2 42 42 NW 7 11 30.24 1024 7 11 N/A
10:20 pm 22:20 Mostly Clear 59 15 37 3 45 45 NW 5 7 30.27 1025 7 11 N/A
10:50 pm 22:50 Mostly Clear 57 14 37 3 48 48 WNW 5 7 30.27 1025 7 11 N/A

Powered by AerisWeather